STARLINK-1287

decayed
NORAD ID: 45371 Int'l Des: 2020-019 Owner: SPXS Country: US Constellation: starlink
LEOCIRCULAR

关于 STARLINK-1287

正在加载描述...

高度历史

Altitude vs Time

uPlot chart will show altitude changes over time

两行轨道根数

1 45371U 20019M 24230.01005044 .20361866 12051-4 45053-2 0 9991
2 45371 53.0348 132.4947 0007924 259.7910 201.8269 16.29533865244859
Epoch: Aug 17, 2024 • Age: 9471 hours

当前状态

Position data unavailable
发射日期 Mar 18, 2020
运行时间 5.4 years
衰减日期 Aug 17, 2024
类型 internet

技术详情

分类 Payload
质量 260.00 kg
干质量 248.00 kg
总质量 260.00 kg
长度 0.20 m
直径 2.80 m
跨度 9.00 m
形状 Box + pan
制造商 SPXS
平台类型 Starlink
阶段状态 Reentered
所有者/国家 SPXS/US

大型星座

Loading constellations...